Location: Lake Almanor
(40.2485°N, 121.1442°W)
Time: 03:05:30
(UTC-08:00)

STARLINK-1095 - Pass Details

Date: 01 February 2020
Orbit: 348 x 351 km, 53.0° (Epoch: 18 February)

Event Time Altitude Azimuth Distance (km) Brightness Sun altitude
Rises 18:38:52 0° 306° (NW) 2,156 7.3 -14.8°
Reaches altitude 10° 18:40:54 10° 303° (WNW) 1,311 6.2 -15.1°
Maximum altitude 18:43:47 60° 222° (SW) 403 3.1 -15.7°
Enters shadow 18:45:26 22° 148° (SSE) 820 4.3 -16.0°
